Temp
3 4 6 8 9 11 12 12 13 14 14 13 13 13 13 13 13 13 12 13 13 13 14 13 13 13 12 12 13 13 13 14 13 15 14 14 13 13 12 11 11 11 11
2 3 4 6 8 10 11 12 12 13 13 13 14 13 14 13 13 12 12 12 12 12 13 13 13 12 12 11 11 12 13 13 13 13 14 14 13 13 12 12 11 11 11
1 2 4 4 6 8 10 11 12 12 12 12 12 13 13 13 12 12 12 12 12 12 12 12 12 12 12 11 11 11 12 12 13 13 13 12 12 12 12 11 11 11 10
1 1 2 3 5 6 8 10 11 12 12 11 12 12 12 13 13 13 13 12 12 12 12 12 12 12 11 12 12 11 11 12 11 11 11 11 11 11 11 11 11 11 12
-0 0 1 2 3 5 7 9 11 12 12 12 12 12 12 12 12 12 11 11 11 11 11 11 11 11 11 11 11 11 11 10 10 10 10 10 10 10 10 10 11 11 11
-1 -1 0 1 2 3 5 8 10 11 11 11 12 11 11 11 11 11 11 11 11 10 11 11 11 11 11 11 11 11 11 10 10 10 10 10 11 12 12 10 10 9 9
-3 -3 -2 -1 1 2 3 6 8 9 10 10 10 10 10 10 10 10 11 10 10 10 10 10 10 10 11 11 11 11 11 11 11 10 10 11 11 12 12 11 10 10 11
-4 -3 -3 -3 -2 0 3 4 6 7 9 10 10 10 10 9 9 10 10 10 10 10 10 11 10 10 10 10 11 10 10 10 10 11 11 12 13 13 12 13 12 10 9
-5 -5 -5 -4 -3 0 1 3 4 5 7 9 10 10 9 8 9 9 9 10 9 10 10 10 10 10 10 10 10 10 11 11 11 11 12 12 12 12 11 11 10 9 8
-7 -7 -6 -4 -4 -1 0 2 3 4 5 7 9 10 10 9 9 9 9 9 9 9 9 9 10 10 10 10 10 10 10 10 11 11 10 10 11 11 11 11 11 9 9
-8 -7 -6 -5 -4 -2 -0 2 3 3 5 7 8 9 9 10 10 10 9 9 8 8 8 9 10 10 10 10 10 10 11 11 11 11 11 10 10 10 10 10 10 11 10
-9 -8 -7 -6 -4 -2 -1 1 2 3 4 5 7 8 9 9 10 10 10 9 9 8 8 8 9 10 10 10 10 10 11 10 10 10 9 9 9 9 9 9 9 9 9
-9 -8 -8 -6 -5 -3 -1 1 2 3 3 4 5 6 7 8 9 9 9 9 9 8 8 9 9 10 10 9 9 9 10 9 9 8 8 9 9 10 9 8 8 8 7
-9 -9 -8 -7 -5 -4 -3 -0 2 2 3 3 3 4 5 7 8 8 8 9 9 9 8 8 8 9 9 9 9 9 9 9 9 8 8 8 7 7 7 8 7 6 6
-10 -9 -8 -7 -7 -5 -4 -2 -0 1 2 3 3 3 4 4 6 7 7 8 9 9 8 8 8 8 8 8 8 8 8 8 7 7 7 6 6 6 6 6 6 5 5
-10 -10 -8 -7 -7 -6 -6 -4 -1 0 1 2 3 3 3 4 4 5 6 7 7 8 7 7 7 7 6 7 7 7 7 7 7 7 7 7 7 6 5 4 5 5 4
-11 -10 -9 -9 -7 -7 -7 -5 -3 -1 0 1 2 3 4 4 4 5 6 7 7 7 7 7 6 6 7 7 7 7 7 7 7 7 7 7 6 6 5 4 4 4 3
-11 -11 -10 -8 -9 -8 -7 -7 -5 -3 -1 -1 1 2 3 4 4 5 6 5 6 6 6 6 6 6 6 6 7 6 6 6 6 6 5 5 5 4 3 2 2 2 2
-11 -11 -10 -9 -10 -9 -8 -8 -7 -5 -3 -2 -1 1 1 2 2 3 4 4 4 4 5 5 5 5 5 5 5 5 5 5 5 4 4 3 3 3 2 2 2 2 1
-11 -11 -10 -10 -11 -10 -9 -9 -8 -7 -6 -4 -2 -2 -1 0 1 1 2 3 3 3 2 3 3 3 3 3 3 3 3 3 3 3 3 3 3 3 2 2 1 0 -0
-11 -11 -11 -11 -11 -11 -9 -10 -9 -8 -8 -7 -5 -4 -3 -1 -1 -1 -1 1 1 1 2 1 2 1 2 2 3 3 3 3 3 3 2 2 2 2 1 1 0 -0 -0
-11 -12 -12 -12 -11 -11 -10 -10 -10 -9 -9 -8 -7 -6 -5 -3 -3 -3 -3 -2 -0 -1 -0 0 2 1 1 3 3 2 2 2 2 2 2 2 1 1 1 0 -0 -1 -1
-12 -12 -12 -12 -12 -11 -11 -11 -11 -10 -9 -9 -8 -8 -7 -7 -6 -5 -5 -5 -3 -1 -2 -1 -1 2 1 1 1 2 2 2 2 2 1 1 0 0 -0 -1 -1 -2 -2
-12 -13 -13 -13 -13 -12 -12 -12 -12 -11 -10 -10 -10 -9 -9 -9 -8 -8 -7 -6 -6 -4 -3 -3 -3 -1 0 1 1 1 1 1 1 1 1 0 -1 -1 -2 -2 -2 -2 -3
-12 -13 -13 -14 -13 -13 -13 -13 -12 -12 -11 -11 -11 -10 -10 -10 -9 -9 -8 -7 -7 -7 -6 -5 -4 -4 -2 -1 -1 -1 -1 -1 -1 -2 -2 -2 -2 -3 -3 -3 -4 -4 -5
-12 -13 -14 -14 -14 -14 -14 -14 -13 -13 -12 -12 -12 -11 -11 -11 -11 -10 -9 -9 -8 -8 -8 -7 -7 -6 -5 -5 -4 -4 -3 -3 -3 -3 -3 -4 -4 -4 -4 -5 -5 -6 -6
Height
797 795 793 792 791 792 793 795 796 798 799 802 806 809 813 816 820 823 825 828 831 834 837 840 842 845 848 851 854 857 858 861 862 863 865 866 867 867 869 871 873 875 876
798 796 793 790 789 789 790 792 793 793 795 797 800 804 808 812 815 818 821 823 825 828 831 833 836 839 842 845 847 850 853 854 857 858 860 861 863 864 865 867 868 870 872
799 796 793 791 789 787 787 788 790 792 793 794 797 801 804 807 810 813 816 818 820 823 825 827 829 832 835 838 840 843 846 848 851 853 854 856 859 860 861 863 864 866 868
799 796 793 791 788 787 784 784 786 788 789 792 794 797 801 803 806 808 811 813 815 817 819 821 823 825 827 830 832 835 838 840 843 847 849 853 854 856 857 859 860 861 862
799 797 794 790 788 783 782 780 781 782 785 787 789 793 796 797 799 802 804 807 809 811 813 815 816 818 820 823 823 827 830 832 835 839 843 847 849 852 852 856 855 858 858
800 798 795 791 786 786 781 779 778 779 781 784 786 788 790 791 793 796 798 800 802 804 806 807 809 809 812 815 817 820 822 826 829 832 836 838 841 844 847 852 853 854 857
801 799 796 792 789 784 782 777 774 775 776 778 781 783 784 785 787 789 792 794 795 797 798 800 802 804 807 810 812 814 816 819 822 825 828 832 835 838 842 845 849 850 850
803 800 796 795 790 785 776 775 774 771 771 772 774 777 778 779 781 783 786 788 789 791 793 794 796 798 800 804 805 807 809 812 817 821 823 827 831 834 837 838 842 844 847
803 800 800 795 787 782 780 775 771 771 768 768 768 770 771 773 776 778 780 781 783 785 787 789 791 793 795 799 801 801 805 808 813 816 819 822 826 829 833 835 838 840 842
802 798 794 790 787 779 779 775 773 771 767 765 763 764 765 766 769 773 776 777 778 779 781 783 785 787 790 793 796 798 801 803 807 811 815 818 821 824 827 829 831 833 837
801 795 792 788 784 782 776 771 769 771 763 759 758 759 760 761 763 766 770 771 773 774 775 776 778 781 783 787 790 793 794 799 802 806 809 812 815 819 821 824 826 825 827
799 794 789 786 782 778 774 771 771 766 761 758 755 755 755 756 758 760 763 765 766 769 769 769 771 774 778 781 785 787 791 794 798 801 804 806 809 813 818 820 820 821 825
798 792 787 784 781 778 773 768 766 762 758 755 756 753 751 751 753 754 755 757 759 761 763 764 765 769 772 774 778 783 786 789 792 795 798 801 804 808 811 815 817 819 822
796 791 787 782 779 776 772 769 766 764 761 758 757 754 751 748 749 748 750 750 752 754 757 759 761 764 767 768 772 776 779 782 785 788 793 796 799 802 805 808 812 815 818
796 791 787 782 779 774 771 767 764 761 758 757 755 752 747 744 744 745 745 744 746 747 750 753 756 759 760 762 766 769 773 776 779 783 786 790 795 797 800 803 807 811 815
795 792 789 783 779 775 770 761 758 756 753 752 750 748 743 742 740 740 740 739 740 742 742 743 746 749 752 756 760 762 765 769 773 777 781 784 787 791 794 799 802 806 810
798 794 789 785 781 776 772 766 759 750 749 748 746 743 741 739 736 734 732 732 733 736 735 736 737 740 743 747 752 755 758 760 765 771 774 778 781 784 790 794 798 803 810
799 796 791 788 780 776 772 767 761 755 748 744 743 741 737 733 730 729 727 727 727 728 729 729 730 733 735 739 743 747 752 756 761 764 769 773 777 782 787 793 797 801 805
798 793 789 786 780 774 772 767 760 755 748 744 743 740 737 731 729 727 725 725 723 722 724 724 725 727 730 733 737 741 746 750 757 761 766 771 775 780 786 791 797 802 806
797 793 792 788 780 774 772 766 760 755 749 745 743 741 736 731 729 730 727 724 723 722 722 722 722 724 728 730 734 739 744 749 754 759 764 770 775 780 785 791 797 802 808
799 795 792 784 780 774 772 767 763 759 753 748 746 742 738 732 727 729 728 723 723 723 721 723 722 724 726 729 733 738 742 748 754 759 764 769 775 780 787 793 798 804 807
796 793 789 787 781 776 771 767 762 759 755 751 746 742 739 732 727 729 729 726 723 724 723 724 721 727 727 729 733 741 745 748 755 761 766 770 776 781 786 793 799 805 810
796 794 792 788 783 780 774 771 766 762 758 754 748 748 738 734 730 732 731 729 725 724 726 724 726 726 731 734 738 742 747 751 756 761 766 771 778 782 787 792 800 805 809
796 794 791 787 782 779 775 771 767 763 759 754 750 747 742 741 735 736 734 732 730 728 726 727 729 731 732 736 742 747 751 754 758 764 768 773 780 784 788 794 799 806 812
796 793 790 787 783 779 775 772 769 764 760 755 753 749 748 747 742 740 739 735 734 733 734 734 733 737 738 739 743 749 754 758 761 766 771 775 780 784 789 795 801 808 813
794 792 790 787 783 780 777 774 771 766 762 759 756 755 754 753 749 745 744 741 739 740 740 739 740 745 746 745 749 752 753 757 764 768 771 776 782 786 790 797 803 806 811
Wind_Speed
18 14 11 9 8 10 15 18 21 25 32 31 31 32 30 31 32 31 31 33 33 33 32 33 33 34 34 33 31 31 29 28 15 15 21 19 14 14 19 22 23 22 22
20 17 13 10 9 12 17 16 14 20 24 29 28 29 26 29 30 31 31 31 32 32 34 33 33 32 32 32 31 33 36 31 23 18 21 21 22 17 16 18 19 21 23
19 20 15 14 11 7 10 18 20 16 13 22 25 26 26 28 28 28 29 31 32 32 32 31 34 32 32 30 32 30 32 32 31 22 20 21 23 19 20 21 21 19 20
21 20 19 18 18 16 9 10 16 19 19 18 19 19 23 24 26 28 31 33 32 33 32 34 34 34 33 32 34 33 30 32 31 25 19 20 23 21 21 24 21 21 19
21 22 21 23 18 18 11 8 13 16 18 20 21 24 26 28 29 29 30 31 31 32 31 32 33 36 36 37 34 30 31 31 26 24 20 17 19 17 19 23 23 20 18
20 20 21 21 20 16 17 9 11 19 21 22 24 25 26 28 30 28 27 29 30 29 28 30 30 26 38 36 36 36 33 31 26 25 23 20 22 23 25 25 21 16 6
19 18 21 22 22 20 19 14 8 13 23 26 27 26 25 26 27 26 27 29 28 27 27 28 25 27 27 30 32 38 40 34 34 31 25 25 24 27 26 24 24 20 20
18 19 20 21 20 21 21 18 16 10 17 27 28 25 23 26 24 24 24 25 26 26 26 25 27 26 26 26 30 27 35 29 31 31 30 31 30 28 28 23 31 25 19
19 21 21 22 23 20 22 20 20 17 11 22 28 25 24 26 24 23 23 25 25 28 28 29 27 28 28 25 27 24 26 30 28 29 29 28 25 23 21 20 22 19 13
23 24 26 25 23 20 20 20 19 20 14 10 23 24 24 23 23 23 23 24 25 27 28 28 28 28 27 25 26 27 29 29 29 28 29 30 27 23 21 22 23 22 12
25 26 24 24 24 19 19 18 21 22 16 11 11 23 24 24 21 20 21 25 25 24 24 27 32 30 28 27 27 29 28 26 28 28 31 30 27 25 22 21 22 20 20
25 26 25 23 25 22 19 16 19 20 16 14 12 13 24 21 20 24 26 26 28 26 25 28 32 31 29 28 25 28 25 23 23 25 29 29 28 25 22 21 20 18 18
24 27 27 25 23 21 21 20 19 19 18 17 14 13 11 13 19 21 22 27 29 31 30 29 28 29 27 26 25 25 24 23 22 23 27 30 31 29 25 21 19 18 16
25 25 24 25 25 23 20 17 15 15 15 14 16 14 13 13 17 19 22 23 26 26 31 28 25 22 23 21 23 25 25 26 26 27 26 25 24 24 24 25 21 19 17
24 23 22 22 24 24 22 19 19 16 14 15 17 17 16 17 19 18 20 23 27 29 30 29 23 22 22 24 23 24 26 25 26 25 23 21 20 20 23 25 25 23 17
23 22 23 23 23 23 24 26 19 17 16 17 16 17 22 25 27 24 22 20 24 26 26 22 24 27 25 25 26 26 28 30 30 28 24 23 25 26 27 25 25 28 24
22 22 23 23 21 22 22 22 23 25 20 18 17 19 19 23 25 24 21 21 22 24 23 24 23 26 27 31 31 31 32 32 30 29 28 29 29 28 30 29 28 24 21
27 20 21 21 21 20 21 22 21 19 19 22 22 16 17 19 20 19 18 16 19 20 25 26 27 31 31 33 33 32 31 28 27 27 28 29 29 31 27 25 26 26 26
27 22 24 22 23 21 20 20 19 19 16 17 21 13 10 8 6 9 12 16 18 23 26 27 29 29 30 31 33 30 29 28 27 27 26 27 29 29 27 27 25 25 26
27 21 20 22 21 19 19 21 20 19 18 16 14 13 14 12 11 14 12 10 15 18 18 23 22 24 26 27 27 28 26 26 26 26 27 27 27 28 28 27 26 27 24
22 22 19 22 22 20 19 19 18 17 17 17 15 14 12 8 8 10 10 10 10 14 18 21 23 25 27 29 30 30 30 29 28 29 29 29 27 27 27 28 28 27 25
22 20 20 20 21 20 19 19 19 18 18 17 18 15 12 6 4 4 3 2 10 11 16 21 26 26 28 31 33 32 32 32 31 30 30 29 29 30 29 27 25 24 23
20 18 18 18 17 17 18 18 18 17 17 17 16 16 13 10 7 3 2 1 6 13 14 19 23 29 26 27 29 31 33 32 30 30 30 29 28 28 28 27 24 21 20
17 16 16 18 17 17 17 18 17 16 16 18 18 17 15 10 9 7 4 4 5 9 14 17 20 25 29 27 26 26 26 26 25 24 25 27 27 24 23 23 21 19 18
14 13 13 15 16 17 17 17 17 17 17 18 18 17 15 12 12 11 10 10 11 13 14 16 19 20 23 26 27 25 23 23 23 22 20 20 22 22 23 22 22 23 21
12 10 10 12 14 14 15 15 15 16 16 16 15 15 14 12 12 14 13 13 15 15 15 17 17 15 16 18 18 20 23 20 19 19 19 20 23 23 22 22 22 21 20
Wind_Direction
4 350 336 318 285 246 245 246 243 242 231 228 224 224 229 231 231 231 229 230 230 236 239 242 246 246 243 245 240 238 239 242 235 254 227 222 236 222 223 230 234 239 241
356 353 347 336 319 259 237 228 228 230 232 225 220 221 226 229 229 230 228 228 229 231 236 235 241 241 243 244 245 242 239 243 232 224 227 221 223 223 218 224 231 237 241
1 352 356 350 338 320 251 239 230 226 212 219 217 218 224 225 227 232 237 238 237 235 233 234 241 239 237 234 238 235 239 239 239 232 221 217 216 221 218 225 230 236 244
355 352 355 355 350 332 291 236 234 232 230 219 217 225 228 232 235 237 236 238 239 239 237 237 236 236 234 234 235 230 227 229 233 224 212 213 212 221 221 226 229 234 241
353 355 346 350 344 350 317 264 236 243 241 234 232 233 238 237 237 238 240 241 240 241 242 245 245 243 236 233 227 226 224 225 216 209 211 196 200 210 215 230 231 241 241
360 349 345 343 348 339 344 312 239 239 235 235 234 235 239 241 241 239 241 246 245 242 241 242 246 239 236 236 236 230 238 222 213 202 201 196 208 219 226 236 233 231 258
359 349 342 340 336 343 333 349 314 257 240 232 232 234 239 240 240 238 240 241 243 242 243 244 249 247 244 246 246 243 240 237 236 215 205 217 218 228 221 228 237 232 235
352 348 340 328 325 330 351 344 346 320 260 240 234 236 245 246 239 237 238 236 242 247 248 249 245 245 241 247 239 239 224 229 231 227 235 245 249 244 230 234 245 238 246
348 339 329 326 326 336 332 344 345 333 316 246 237 236 242 242 237 240 238 237 237 242 248 247 250 248 251 244 245 229 235 235 237 239 243 246 248 243 252 247 231 221 227
341 333 327 330 323 326 324 338 336 325 315 296 247 246 244 245 238 238 237 236 234 238 244 245 245 244 248 242 234 233 231 235 233 234 234 237 242 243 235 232 230 211 205
333 333 330 327 327 316 317 337 338 316 329 329 287 250 249 243 239 236 235 233 233 232 232 236 239 240 242 241 239 235 239 243 238 236 235 234 234 234 231 228 227 224 216
336 336 336 331 326 325 324 321 314 333 331 334 332 279 247 245 249 247 240 239 239 234 230 234 241 238 236 241 239 237 239 241 241 235 233 229 224 226 228 223 222 224 230
339 340 340 335 330 330 321 315 317 330 339 332 322 318 297 273 259 260 253 243 239 237 243 245 246 243 239 232 231 231 232 234 235 231 230 232 229 228 220 217 220 224 225
339 340 339 337 335 330 326 321 304 308 316 318 310 308 310 304 285 270 259 252 240 241 239 242 243 238 230 236 237 234 231 231 230 227 229 231 231 223 217 220 212 214 201
343 340 340 339 334 328 324 314 311 299 300 300 299 296 306 303 291 289 270 259 249 244 235 231 226 225 227 225 228 225 222 222 224 225 219 219 215 213 209 210 212 191 182
345 343 338 341 335 328 324 325 320 316 310 303 300 297 298 290 288 281 271 262 253 255 222 209 208 211 209 214 218 217 220 220 224 225 219 217 213 205 192 186 189 187 187
344 339 336 335 337 330 326 325 322 321 316 312 309 306 302 296 284 279 272 266 259 246 224 210 204 204 205 212 216 219 213 214 217 216 218 209 197 186 184 182 182 182 178
350 342 335 331 336 331 327 320 317 314 319 317 318 319 311 307 294 280 273 262 247 232 218 210 205 207 210 212 213 211 209 205 203 202 198 191 187 185 179 176 176 169 164
353 345 339 338 341 338 330 328 327 325 322 316 313 301 297 286 284 251 220 224 218 213 216 212 213 210 207 205 201 195 192 188 191 187 186 184 179 176 171 169 167 165 159
352 348 343 337 345 343 337 337 339 337 334 333 327 320 307 302 306 291 249 245 236 222 212 207 199 200 197 188 182 176 171 172 172 172 169 169 168 168 164 163 163 156 153
353 352 345 352 347 347 342 348 344 345 346 345 337 353 345 318 316 304 277 237 223 216 204 198 181 180 175 169 166 164 163 160 162 162 161 161 160 158 159 160 157 156 155
355 355 356 351 354 347 352 356 360 356 360 357 352 345 349 346 354 325 305 222 205 190 184 181 170 168 163 166 165 163 160 157 158 158 157 157 159 159 159 158 156 156 155
353 354 354 356 360 350 359 4 5 5 7 6 12 359 10 23 32 22 10 21 160 177 178 168 166 165 167 165 163 163 161 158 159 161 159 160 162 160 158 155 158 156 159
350 352 354 356 0 357 359 1 9 11 14 16 20 20 20 27 52 49 70 81 116 145 161 165 159 158 160 158 157 160 159 158 160 165 165 162 159 157 158 157 159 164 172
349 350 351 355 356 358 360 2 9 15 18 25 21 29 28 38 57 65 72 87 91 107 121 134 134 139 145 148 150 150 148 150 154 156 162 166 164 163 162 165 168 171 170
346 345 351 352 354 360 359 360 2 15 17 20 27 32 30 34 54 70 75 84 88 88 95 102 109 118 125 130 142 155 159 164 167 169 168 167 165 165 168 171 173 175 179